Вернуться в каталог

ONEWEB-0685

АктивенСвязьPO
NORAD 54679·PAYLOAD·🇬🇧 United Kingdom

Запущен Dec 8, 2022 с Cape Canaveral Space Force Station

Loading…

Ближайшие Пролёты (ближайшие 24 часа)

TLE

СвежийSource: CelesTrak SupGP

Эпоха: Sep 14, 2026, 12:17 UTC

1 54679C 22166AP  26257.51233050 -.00001614  00000+0 -38335-2 0  2573
2 54679  87.9273 226.1680 0002138  99.9620 274.9784 13.23191363    17

Отслеживайте ONEWEB-0685 в реальном времени с AllMySat

Download on the App Store